MUOS-5

Last updated on Thu Mar 05 2026 00:02:58 GMT+0000 (Coordinated Universal Time)

1 41622U 16041A 26063.35669706 -.00000169 00000+0 00000+0 0 9991 2 41622 2.4313 299.8238 0195184 262.7398 342.8746 1.00271777 36034
UTC large
Height (km)
Speed (km/s)
/
Latitude / Longitude
Inclination (degrees)
Orbital Period (minutes)
Azimuth
Elevation
Range (km)
Doppler Factor

Next 0 passes for location: London (51.5072 / 0.1276)

Sorry there are no passes over London.